GW1938 Weather Reports


time (UTC)temp
F
wind
direction
speed
knots
gust
knots
rain 1hr
in
rain 24hr
in
rain mn
in
humidity
%
barometer
mb
20260905143505 73 304 11.3 13.9 0.00 0.00 0.00 44 1008.0
20260905143001 74 306 11.3 13.9 0.00 0.00 0.00 42 1007.9
20260905142459 74 303 11.3 13.9 0.00 0.00 0.00 42 1007.9
20260905141957 74 304 10.4 13.0 0.00 0.00 0.00 39 1007.8
20260905141456 73 307 12.2 14.8 0.00 0.00 0.00 41 1007.8
20260905140449 73 311 13.9 15.6 0.00 0.00 0.00 44 1007.7
20260905135946 73 318 11.3 15.6 0.00 0.00 0.00 44 1007.6
20260905135444 73 321 9.6 14.8 0.00 0.00 0.00 44 1007.5
20260905134942 72 326 8.7 13.0 0.00 0.00 0.00 43 1007.4
20260905133936 72 327 8.7 12.2 0.00 0.00 0.00 48 1007.4
20260905133435 73 329 9.6 15.6 0.00 0.00 0.00 46 1007.4
20260905132934 72 326 10.4 14.8 0.00 0.00 0.00 46 1007.3
20260905132431 72 328 9.6 15.6 0.00 0.00 0.00 47 1007.5
20260905131930 73 328 9.6 13.0 0.00 0.00 0.00 47 1007.6
20260905131429 73 330 10.4 15.6 0.00 0.00 0.00 47 1007.6
20260905125919 73 327 12.2 18.2 0.00 0.00 0.00 48 1007.5
20260905125415 73 328 13.0 19.1 0.00 0.00 0.00 49 1007.4
20260905124912 73 330 14.8 20.9 0.00 0.00 0.00 47 1007.4
20260905124408 73 330 14.8 20.0 0.00 0.00 0.00 48 1007.2
20260905123905 73 329 16.5 21.7 0.00 0.00 0.00 49 1007.2
20260905123403 73 329 17.4 24.3 0.00 0.00 0.00 48 1007.1
20260905122900 73 330 15.6 20.0 0.00 0.00 0.00 50 1007.2
20260905122357 73 331 14.8 19.1 0.00 0.00 0.00 50 1007.1
20260905121856 72 333 14.8 22.6 0.00 0.00 0.00 51 1007.1
20260905120851 72 336 15.6 20.9 0.00 0.00 0.00 51 1007.3
20260905120349 72 337 14.8 21.7 0.00 0.00 0.00 53 1007.4
20260905115315 72 338 16.5 25.2 0.00 0.00 0.00 53 1007.8
20260905114811 71 340 17.4 22.6 0.00 0.00 0.00 54 1008.0
20260905114251 71 343 15.6 22.6 0.00 0.00 0.00 56 1008.0
20260905113243 71 342 15.6 20.0 0.00 0.00 0.00 56 1008.0
20260905112739 71 343 16.5 22.6 0.00 0.00 0.00 57 1008.1
20260905111733 71 339 14.8 22.6 0.00 0.00 0.00 57 1008.5
20260905111228 71 340 14.8 18.2 0.00 0.00 0.00 58 1008.7
20260905110727 71 339 15.6 20.9 0.00 0.00 0.00 58 1008.8
20260905110223 71 335 13.0 18.2 0.00 0.00 0.00 59 1009.2
20260905105721 71 332 12.2 15.6 0.00 0.00 0.00 58 1009.5
20260905105220 71 332 11.3 14.8 0.00 0.00 0.00 58 1009.7
20260905104216 71 327 11.3 18.2 0.00 0.00 0.00 58 1009.8
20260905102706 71 305 12.2 18.2 0.00 0.00 0.00 57 1010.2
20260905102205 71 298 8.7 15.6 0.00 0.00 0.00 61 1010.3
20260905101704 71 282 8.7 13.9 0.00 0.00 0.00 62 1010.4
20260905095618 74 264 14.8 23.5 0.00 0.00 0.00 52 1010.8
20260905095114 74 256 14.8 26.1 0.00 0.00 0.00 50 1010.6
20260905094505 75 252 15.6 25.2 0.00 0.00 0.00 46 1010.1
20260905094004 75 250 13.0 20.9 0.00 0.00 0.00 46 1010.0
20260905093503 76 248 13.0 20.9 0.00 0.00 0.00 43 1009.7
20260905092459 76 242 12.2 20.0 0.00 0.00 0.00 43 1009.9
20260905091432 77 237 12.2 20.0 0.00 0.00 0.00 40 1009.4
20260905090932 78 237 13.0 21.7 0.00 0.00 0.00 38 1009.4
20260905090429 78 237 12.2 18.2 0.00 0.00 0.00 38 1009.3
20260905085928 78 238 13.9 23.5 0.00 0.00 0.00 37 1009.4
20260905085427 79 235 15.6 24.3 0.00 0.00 0.00 36 1009.4
20260905084926 79 235 13.0 28.7 0.00 0.00 0.00 35 1009.4
20260905084425 79 235 14.8 23.5 0.00 0.00 0.00 33 1009.3
20260905083924 78 250 15.6 24.3 0.00 0.00 0.00 35 1008.8
20260905083422 79 300 8.7 15.6 0.00 0.00 0.00 37 1008.6
20260905082921 80 323 7.8 10.4 0.00 0.00 0.00 28 1007.8
20260905081917 80 338 7.0 7.8 0.00 0.00 0.00 28 1007.5
20260905081358 80 338 7.0 7.8 0.00 0.00 0.00 28 1007.5
20260905080857 80 335 7.0 7.8 0.00 0.00 0.00 28 1007.4
20260905080356 80 336 7.0 7.8 0.00 0.00 0.00 29 1007.4
20260905075855 80 336 7.8 8.7 0.00 0.00 0.00 28 1007.2
20260905075354 80 333 7.0 9.6 0.00 0.00 0.00 29 1007.1
20260905074853 80 328 7.0 8.7 0.00 0.00 0.00 27 1007.1
20260905073848 81 330 8.7 11.3 0.00 0.00 0.00 28 1006.9
20260905073347 81 321 12.2 20.9 0.00 0.00 0.00 31 1006.9
20260905072846 81 319 11.3 14.8 0.00 0.00 0.00 28 1006.8
20260905072345 81 321 10.4 15.6 0.00 0.00 0.00 29 1006.8
20260905071339 82 324 12.2 20.0 0.00 0.00 0.00 28 1006.7
20260905070837 82 322 14.8 21.7 0.00 0.00 0.00 29 1006.8
20260905070336 82 322 14.8 21.7 0.00 0.00 0.00 29 1006.8
20260905065835 83 324 14.8 22.6 0.00 0.00 0.00 27 1006.7
20260905064328 84 329 13.9 19.1 0.00 0.00 0.00 28 1006.5
20260905063827 84 329 13.0 19.1 0.00 0.00 0.00 27 1006.5
20260905062319 85 325 15.6 28.7 0.00 0.00 0.00 28 1006.5
20260905061314 84 331 13.0 18.2 0.00 0.00 0.00 29 1006.5
20260905060812 85 327 15.6 24.3 0.00 0.00 0.00 26 1006.4
20260905060312 85 322 17.4 25.2 0.00 0.00 0.00 27 1006.3
20260905055811 85 316 19.1 24.3 0.00 0.00 0.00 27 1006.3
20260905054806 85 323 18.2 27.8 0.00 0.00 0.00 26 1006.3
20260905054305 85 331 11.3 18.2 0.00 0.00 0.00 28 1006.4
20260905053805 84 323 9.6 16.5 0.00 0.00 0.00 30 1006.5
20260905053303 84 311 6.1 11.3 0.00 0.00 0.00 34 1006.6
20260905052802 84 272 6.1 11.3 0.00 0.00 0.00 30 1006.6
20260905052301 83 235 3.5 7.8 0.00 0.00 0.00 32 1006.6
20260905051800 83 217 3.5 7.8 0.00 0.00 0.00 36 1006.8
20260905051204 83 93 1.7 3.5 0.00 0.00 0.00 36 1006.9
20260905050703 84 341 4.3 15.6 0.00 0.00 0.00 35 1007.0
20260905050201 83 359 3.5 6.1 0.00 0.00 0.00 37 1007.1
20260905045700 83 22 3.5 7.8 0.00 0.00 0.00 38 1007.0
20260905045159 82 24 2.6 6.1 0.00 0.00 0.00 41 1007.2
20260905044658 80 37 4.3 7.0 0.00 0.00 0.00 42 1007.1
20260905044157 83 8 3.5 7.0 0.00 0.00 0.00 36 1007.2
20260905043633 82 31 3.5 7.0 0.00 0.00 0.00 40 1007.2
20260905043132 82 10 3.5 7.0 0.00 0.00 0.00 40 1007.3
20260905042631 80 11 2.6 6.1 0.00 0.00 0.00 40 1007.4
20260905034739 81 28 3.5 6.1 0.00 0.00 0.00 44 1007.8
20260905034238 82 19 3.5 6.1 0.00 0.00 0.00 42 1007.9
20260905033734 80 31 3.5 5.2 0.00 0.00 0.00 43 1008.1
20260905033233 79 50 6.1 9.6 0.00 0.00 0.00 45 1008.1
20260905032730 80 46 5.2 9.6 0.00 0.00 0.00 44 1008.2
20260905032227 79 51 7.0 9.6 0.00 0.00 0.00 44 1008.3
20260905031723 77 55 9.6 11.3 0.00 0.00 0.00 48 1008.4
20260905031220 78 68 7.8 9.6 0.00 0.00 0.00 45 1008.5
20260905030718 77 73 7.8 9.6 0.00 0.00 0.00 47 1008.7
20260905030215 76 70 7.8 10.4 0.00 0.00 0.00 49 1008.8
20260905025712 77 72 7.8 10.4 0.00 0.00 0.00 47 1008.9
20260905025211 77 64 8.7 12.2 0.00 0.00 0.00 47 1009.1
20260905024205 76 68 8.7 11.3 0.00 0.00 0.00 48 1009.4
20260905023704 76 65 9.6 12.2 0.00 0.00 0.00 48 1009.6
20260905022658 77 56 10.4 13.0 0.00 0.00 0.00 45 1009.9
20260905022155 77 57 9.6 13.0 0.00 0.00 0.00 45 1010.1
20260905021651 76 54 9.6 12.2 0.00 0.00 0.00 45 1010.2
20260905021150 76 52 9.6 12.2 0.00 0.00 0.00 45 1010.5
20260905020646 76 52 8.7 12.2 0.00 0.00 0.00 46 1010.6
20260905020145 75 54 9.6 13.0 0.00 0.00 0.00 47 1010.7
20260905015138 75 54 8.7 11.3 0.00 0.00 0.00 47 1011.0
20260905014637 75 53 8.7 10.4 0.00 0.00 0.00 48 1011.2
20260905014135 75 51 7.0 10.4 0.00 0.00 0.00 48 1011.5
20260905013633 74 50 6.1 8.7 0.00 0.00 0.00 50 1011.7
20260905012626 71 76 5.2 7.0 0.00 0.00 0.00 59 1012.0
20260905012124 72 70 6.1 8.7 0.00 0.00 0.00 61 1012.1
20260905011622 70 73 7.0 7.8 0.00 0.00 0.00 66 1012.2
20260905011121 71 69 5.2 7.0 0.00 0.00 0.00 63 1012.4
20260905010618 71 81 6.1 7.0 0.00 0.00 0.00 61 1012.6
20260905010116 74 94 3.5 7.0 0.00 0.00 0.00 56 1012.8
20260905005111 74 99 3.5 6.1 0.00 0.00 0.00 56 1013.1
20260905004610 74 95 4.3 7.0 0.00 0.00 0.00 56 1013.2
20260905002600 72 88 4.3 5.2 0.00 0.00 0.00 52 1013.6
20260905001555 72 89 3.5 5.2 0.00 0.00 0.00 60 1013.7
20260905001053 71 81 4.3 5.2 0.00 0.00 0.00 60 1013.8
20260905000552 70 83 3.5 4.3 0.00 0.00 0.00 57 1013.9
20260904235546 69 50 3.5 4.3 0.00 0.00 0.00 62 1014.0
20260904235045 68 53 2.6 3.5 0.00 0.00 0.00 60 1014.0
20260904234542 69 51 2.6 5.2 0.00 0.00 0.00 61 1014.2
20260904234040 71 33 1.7 3.5 0.00 0.00 0.00 58 1014.3
20260904233537 71 341 1.7 2.6 0.00 0.00 0.00 59 1014.4
20260904233035 71 337 1.7 2.6 0.00 0.00 0.00 51 1014.4
20260904232534 72 330 1.7 2.6 0.00 0.00 0.00 46 1014.5
20260904232031 73 330 2.6 3.5 0.00 0.00 0.00 48 1014.6
20260904231530 72 320 1.7 2.6 0.00 0.00 0.00 47 1014.7
20260904231029 71 321 1.7 3.5 0.00 0.00 0.00 48 1014.7
20260904230025 70 325 3.5 4.3 0.00 0.00 0.00 56 1014.8
20260904225020 69 325 3.5 6.1 0.00 0.00 0.00 54 1015.0
20260904224519 71 336 4.3 5.2 0.00 0.00 0.00 50 1015.0
20260904224017 71 350 4.3 5.2 0.00 0.00 0.00 52 1015.1
20260904223012 71 345 4.3 5.2 0.00 0.00 0.00 52 1015.0
20260904222510 70 345 3.5 5.2 0.00 0.00 0.00 54 1015.1
20260904222007 69 343 4.3 5.2 0.00 0.00 0.00 56 1015.0
20260904221506 67 344 3.5 5.2 0.00 0.00 0.00 58 1015.1
20260904221004 66 342 4.3 6.1 0.00 0.00 0.00 59 1015.1
20260904220500 65 342 4.3 6.1 0.00 0.00 0.00 61 1015.1
20260904215958 65 346 4.3 7.0 0.00 0.00 0.00 60 1015.2
20260904215455 65 344 4.3 5.2 0.00 0.00 0.00 60 1015.3
20260904214953 65 342 4.3 5.2 0.00 0.00 0.00 59 1015.3
20260904214452 65 336 4.3 6.1 0.00 0.00 0.00 59 1015.2
20260904213949 65 329 5.2 8.7 0.00 0.00 0.00 60 1015.3
20260904213447 64 321 7.0 9.6 0.00 0.00 0.00 60 1015.2
20260904212946 64 316 7.0 9.6 0.00 0.00 0.00 62 1015.2
20260904212444 64 314 6.1 7.8 0.00 0.00 0.00 64 1015.1
20260904211940 64 322 5.2 7.8 0.00 0.00 0.00 64 1015.2
20260904211438 63 329 5.2 7.0 0.00 0.00 0.00 66 1015.2
20260904210936 62 332 6.1 7.8 0.00 0.00 0.00 68 1015.2
20260904210434 62 330 7.0 10.4 0.00 0.00 0.00 69 1015.0
20260904205933 61 333 7.8 10.4 0.00 0.00 0.00 69 1015.0
20260904204929 60 333 7.0 7.8 0.00 0.00 0.00 75 1014.9
20260904203931 59 332 6.1 8.7 0.00 0.00 0.00 77 1015.0
20260904203420 59 333 6.1 7.8 0.00 0.00 0.00 77 1015.0
20260904202919 59 334 6.1 9.6 0.00 0.00 0.00 79 1015.0
20260904202414 59 337 6.1 8.7 0.00 0.00 0.00 80 1015.1
20260904201912 58 335 5.2 7.0 0.00 0.00 0.00 80 1015.2
20260904201410 58 335 5.2 7.0 0.00 0.00 0.00 80 1015.1
20260904200909 58 334 5.2 6.1 0.00 0.00 0.00 80 1015.1
20260904195903 58 324 7.0 10.4 0.00 0.00 0.00 80 1015.2
20260904195402 58 315 7.8 11.3 0.00 0.00 0.00 81 1015.2
20260904194901 58 322 6.1 8.7 0.00 0.00 0.00 83 1015.2
20260904193857 57 334 4.3 5.2 0.00 0.00 0.00 84 1015.1
20260904193356 57 338 3.5 4.3 0.00 0.00 0.00 82 1015.1
20260904192854 58 345 3.5 3.5 0.00 0.00 0.00 82 1015.1
20260904192353 58 343 2.6 3.5 0.00 0.00 0.00 81 1015.0
20260904191851 58 348 2.6 4.3 0.00 0.00 0.00 80 1015.0
20260904191350 58 342 2.6 3.5 0.00 0.00 0.00 82 1015.0
20260904190345 58 343 4.3 6.1 0.00 0.00 0.00 80 1014.9
20260904185844 58 343 4.3 6.1 0.00 0.00 0.00 80 1014.9
20260904185343 58 343 4.3 7.0 0.00 0.00 0.00 79 1014.8
20260904184842 59 341 5.2 6.1 0.00 0.00 0.00 79 1014.7
20260904183837 60 337 6.1 7.0 0.00 0.00 0.00 77 1014.7
20260904183336 60 333 6.1 8.7 0.00 0.00 0.00 75 1014.7
20260904182835 60 335 6.1 8.7 0.00 0.00 0.00 75 1014.7
20260904181831 61 318 7.8 10.4 0.00 0.00 0.00 75 1014.7
20260904181330 61 304 7.8 10.4 0.00 0.00 0.00 74 1014.6
20260904180829 61 306 7.0 9.6 0.00 0.00 0.00 76 1014.7
20260904180327 60 304 6.1 8.7 0.00 0.00 0.00 75 1014.6
20260904175322 61 312 7.8 9.6 0.00 0.00 0.00 70 1014.8
20260904174821 60 323 7.0 10.4 0.00 0.00 0.00 71 1014.8
20260904173815 60 320 5.2 7.0 0.00 0.00 0.00 72 1015.0
20260904172811 60 319 6.1 8.7 0.00 0.00 0.00 68 1015.1
20260904172309 60 310 7.0 8.7 0.00 0.00 0.00 73 1015.1
20260904171305 60 282 4.3 5.2 0.00 0.00 0.00 72 1015.2
20260904170803 60 282 3.5 4.3 0.00 0.00 0.00 70 1015.3
20260904165758 61 305 6.1 7.8 0.00 0.00 0.00 68 1015.3
20260904165257 61 305 7.0 8.7 0.00 0.00 0.00 66 1015.3
20260904164253 60 295 6.1 8.7 0.00 0.00 0.00 70 1015.6
20260904163249 60 325 6.1 8.7 0.00 0.00 0.00 73 1015.7
20260904162748 60 330 5.2 7.8 0.00 0.00 0.00 74 1015.8
20260904160233 61 296 5.2 6.1 0.00 0.00 0.00 68 1016.4
20260904155732 61 299 4.3 7.0 0.00 0.00 0.00 69 1016.5
20260904155230 61 292 4.3 5.2 0.00 0.00 0.00 67 1016.4
20260904154729 61 301 4.3 6.1 0.00 0.00 0.00 69 1016.4
20260904154228 61 307 3.5 5.2 0.00 0.00 0.00 74 1016.5
20260904153727 61 328 2.6 4.3 0.00 0.00 0.00 76 1016.5
20260904153226 60 332 2.6 5.2 0.00 0.00 0.00 76 1016.5
20260904152217 61 333 2.6 4.3 0.00 0.00 0.00 72 1016.4
20260904151715 62 316 4.3 6.1 0.00 0.00 0.00 71 1016.5
20260904151214 61 316 4.3 7.0 0.00 0.00 0.00 71 1016.5
20260904150712 61 320 4.3 7.0 0.00 0.00 0.00 72 1016.5
20260904145204 61 306 4.3 7.0 0.00 0.00 0.00 74 1016.6
20260904144703 61 309 4.3 7.0 0.00 0.00 0.00 75 1016.6
20260904144202 61 306 4.3 7.0 0.00 0.00 0.00 74 1016.6